[[{"header":{"parameterUnit":"m.s-1","parameterCategory":1,"la1":30.2991,"la2":30.254,"lo1":-89.0895,"lo2":-89.0444,"dy":0.0017,"dx":0.0017,"nx":28,"ny":28,"refTime":"2024-10-16T21:00:00:Z","depth":0,"parameterNumber":2,"parameterNumberName":"U-component_of_WINDS"},"data":[0,0,0,0,0,0,0,0,0,0,0,0,0,0,0,0,0,0,0,0,0,0,0,0,0,0,0,0,0,0,0,0,0,0,0,0,0,0,0,0,0,0,0,0,0,0,0,0,0,0,0,0,0,0,0,0,0,0,-5.2042,-5.2043,0,-5.2102,-5.2102,-5.2103,-5.1877,-5.187,-5.1863,-5.1857,-5.1922,-5.1929,-5.1937,0,0,0,0,0,0,0,0,0,0,0,0,0,-5.1735,-5.1741,-5.2042,-5.2043,-5.2044,-5.2102,-5.2102,-5.2103,-5.1878,-5.187,-5.1862,-5.1854,-5.1919,-5.1928,-5.1938,0,0,0,0,0,0,0,0,0,0,0,0,0,-5.1839,-5.1744,-5.2042,-5.1938,-5.1929,-5.2101,-5.2102,-5.2103,-5.188,-5.187,-5.186,-5.185,-5.1916,-5.1928,-5.1939,-5.2215,0,0,-5.1976,-5.1981,0,0,0,0,0,0,0,0,-5.1833,-5.185,-5.1953,-5.1946,-5.1936,-5.1971,-5.2017,-5.2141,-5.1882,-5.1899,-5.1857,-5.1845,-5.1947,-5.1955,-5.1989,-5.2218,-5.2221,-5.1977,-5.1984,-5.1989,-5.1993,0,0,0,0,0,0,0,-5.1826,-5.1847,-5.2066,-5.1955,-5.1944,-5.1889,-5.1893,-5.204,-5.1979,-5.1897,-5.188,-5.189,-5.194,-5.1978,-5.1989,-5.2222,-5.1977,-5.1987,-5.1995,-5.1999,-5.268,-5.269,0,0,0,0,0,0,-5.1832,-5.1842,-5.2064,-5.2067,-5.1859,-5.1903,-5.1907,-5.197,-5.1976,-5.1968,-5.1899,-5.188,-5.1962,-5.1975,-5.199,-5.2313,-5.1989,-5.2001,-5.2007,-5.2669,-5.2682,-5.2694,0,0,0,0,0,0,-5.1827,-5.1854,-5.2061,-5.195,-5.1972,-5.1919,-5.1992,-5.1977,-5.2014,-5.1978,-5.1966,-5.1949,-5.1955,-5.1973,-5.216,-5.2313,-5.2006,-5.2017,-5.2656,-5.2673,-5.2688,-5.2963,0,0,0,0,0,0,-5.1819,-5.1854,-5.1958,-5.1954,-5.1979,-5.2232,-5.2001,-5.1985,-5.2035,-5.2011,-5.2022,-5.2014,-5.1948,-5.2144,-5.2173,-5.2324,-5.2026,-5.2642,-5.2663,-5.2683,-5.2941,-5.2987,-5.3027,0,0,0,0,0,-5.1809,-5.2034,-5.1964,-5.1993,-5.2108,-5.2241,-5.2255,-5.2174,-5.2048,-5.2153,-5.2129,-5.2013,-5.2291,-5.2165,-5.2195,-5.2352,-5.2632,-5.2657,-5.2681,-5.2921,-5.2978,-5.3026,0,0,0,0,0,0,-5.2059,-5.2032,-5.1954,-5.2185,-5.2217,-5.2202,-5.2332,-5.2237,-5.2306,-5.228,-5.2177,-5.2182,-5.2388,-5.2388,-5.2248,-5.2619,-5.244,-5.2472,-5.2612,-5.2666,-5.2708,-5.2705,-5.2036,0,0,0,0,0,-5.214,-5.2249,-5.222,-5.2427,-5.2446,-5.2387,-5.2441,-5.2376,-5.2405,-5.2418,-5.2408,-5.2441,-5.2535,-5.26,-5.2684,-5.2938,-5.2938,-5.3061,-5.3104,-5.314,-5.3169,-5.3303,-5.3358,-5.2774,-5.2774,-5.2773,0,0,-5.2311,-5.231,-5.2385,-5.2477,-5.2493,-5.2609,-5.24,-5.2531,-5.2616,-5.2438,-5.2614,-5.2608,-5.2638,-5.286,-5.2957,-5.2867,-5.333,-5.3171,-5.32,-5.321,-5.3334,-5.339,-5.3439,-5.2791,-5.2788,-5.2785,0,0,-5.2682,-5.2691,-5.2864,-5.2885,-5.2912,-5.287,-5.2912,-5.2912,-5.2901,-5.3075,-5.2943,-5.3043,-5.3208,-5.3234,-5.327,-5.3648,-5.3545,-5.3678,-5.3905,-5.4037,-5.4083,-5.4124,-5.426,-5.431,-5.3707,-5.3708,-5.3708,0,-5.2891,-5.3059,-5.2966,-5.3106,-5.315,-5.2991,-5.3166,-5.3191,-5.3246,-5.328,-5.3177,-5.3379,-5.3389,-5.3614,-5.3707,-5.374,-5.3785,-5.3678,-5.4084,-5.4124,-5.416,-5.4289,-5.434,-5.3724,-5.3722,-5.3721,-5.3719,0,-5.3316,-5.3434,-5.3571,-5.3626,-5.3685,-5.3842,-5.3772,-5.3844,-5.3772,-5.3742,-5.3922,-5.3926,-5.4009,-5.4057,-5.399,-5.4274,-5.4217,-5.4101,-5.3919,-5.4233,-5.4353,-5.4401,-5.3747,-5.3742,-5.3737,-5.3733,0,0,-5.3849,-5.3848,-5.39,-5.3922,-5.394,-5.403,-5.4179,-5.4259,-5.4322,-5.4364,-5.4488,-5.4629,-5.4521,-5.4562,-5.4495,-5.4611,-5.4911,-5.448,-5.4479,-5.4561,-5.5225,-5.5314,-5.5373,-5.4841,-5.485,-5.4857,-5.5223,0,-5.4213,-5.4468,-5.4387,-5.4645,-5.4753,-5.4603,-5.4733,-5.4758,-5.4733,-5.4822,-5.4793,-5.4896,-5.4745,-5.4769,-5.4876,-5.4852,-5.5044,-5.4824,-5.4956,-5.4962,-5.4956,-5.5435,-5.553,-5.5875,-5.5269,-5.5277,-5.5282,0,-5.4674,-5.4733,-5.5002,-5.4999,-5.5042,-5.516,-5.5226,-5.5312,-5.5337,-5.531,-5.5355,-5.5264,-5.541,-5.5226,-5.5427,-5.528,-5.5328,-5.5324,-5.5336,-5.5347,-5.5144,-5.5461,-5.5983,-5.6036,-5.5355,-5.5349,-5.5344,0,-5.5038,-5.5184,-5.5363,-5.5387,-5.5389,-5.5475,-5.548,-5.5495,-5.5547,-5.5605,-5.5638,-5.5712,-5.5754,-5.5814,-5.5745,-5.5617,-5.5957,-5.5767,-5.594,-5.5943,-5.6021,-5.6017,-5.656,-5.6049,-5.6049,-5.6048,-5.6047,0,-5.5455,-5.5626,-5.5526,-5.5638,-5.5824,-5.5728,-5.5916,-5.5903,-5.5917,-5.6023,-5.5897,-5.6,-5.5901,-5.5995,-5.5942,-5.6117,-5.6136,-5.612,-5.6104,-5.6133,-5.6135,-5.6165,-5.614,-5.6061,-5.6058,-5.6056,-5.6053,0,-5.5894,-5.5834,-5.602,-5.6005,-5.6005,-5.6144,-5.6131,-5.6233,-5.6197,-5.6333,-5.636,-5.6305,-5.6408,-5.6345,-5.645,-5.6414,-5.6643,-5.6593,-5.6635,-5.6623,-5.68,-5.6785,-5.7383,-5.7457,-5.6897,-5.6903,-5.6907,0,-5.6165,-5.6293,-5.6291,-5.6352,-5.6365,-5.6466,-5.6518,-5.6428,-5.6488,-5.6525,-5.6623,-5.6715,-5.6784,-5.6956,-5.6926,-5.7006,-5.6958,-5.7162,-5.697,-5.6994,-5.6964,-5.6958,-5.697,-5.7203,-5.7209,-5.7214,-5.7219,0,-5.6654,-5.6617,-5.6697,-5.6768,-5.6833,-5.6884,-5.6925,-5.6983,-5.6892,-5.6966,-5.7069,-5.7123,-5.7229,-5.7323,-5.7389,-5.7394,-5.7294,-5.7279,-5.7323,-5.7355,-5.7375,-5.7368,-5.6743,-5.7266,-5.7262,-5.7258,-5.7256,-5.7254,-5.7018,-5.7124,-5.7139,-5.7232,-5.7253,-5.7293,-5.7388,-5.7364,-5.7448,-5.7527,-5.7468,-5.7592,-5.7611,-5.769,-5.7708,-5.7803,-5.7721,-5.7785,-5.7802,-5.782,-5.7845,-5.7358,-5.7815,-5.7813,-5.7812,-5.7811,-5.781,0,-5.7501,-5.7502,-5.7589,-5.7649,-5.7722,-5.7617,-5.7656,-5.7725,-5.7835,-5.7861,-5.7931,-5.805,-5.8139,-5.8116,-5.8196,-5.8277,-5.8233,-5.8301,-5.8296,-5.8299,-5.7914,-5.7868,-5.8336,-5.8336,-5.8336,-5.8336,-5.8335,-5.8335,-5.7761,-5.7935,-5.79,-5.8083,-5.8083,-5.8202,-5.8233,-5.827,-5.829,-5.8428,-5.8502,-5.8484,-5.8491,-5.857,-5.8648,-5.8638,-5.8675,-5.8762,-5.8736,-5.8377,-5.8326,-5.8276,-5.8233,-5.877,-5.877,-5.9113,-5.9116,-5.9118]},{"header":{"parameterUnit":"m.s-1","parameterCategory":1,"la1":30.2991,"la2":30.254,"lo1":-89.0895,"lo2":-89.0444,"dy":0.0017,"dx":0.0017,"nx":28,"ny":28,"refTime":"2024-10-16T21:00:00:Z","depth":0,"parameterNumber":3,"parameterNumberName":"V-component_of_WINDS"},"data":[0,0,0,0,0,0,0,0,0,0,0,0,0,0,0,0,0,0,0,0,0,0,0,0,0,0,0,0,0,0,0,0,0,0,0,0,0,0,0,0,0,0,0,0,0,0,0,0,0,0,0,0,0,0,0,0,0,0,-4.3357,-4.3358,0,-4.3404,-4.3405,-4.3405,-4.3372,-4.3371,-4.3369,-4.3368,-4.3414,-4.3416,-4.3419,0,0,0,0,0,0,0,0,0,0,0,0,0,-4.3233,-4.3236,-4.3357,-4.3358,-4.3358,-4.3404,-4.3405,-4.3406,-4.3373,-4.3371,-4.3369,-4.3367,-4.3413,-4.3416,-4.3419,0,0,0,0,0,0,0,0,0,0,0,0,0,-4.3284,-4.3237,-4.3357,-4.3348,-4.3347,-4.3404,-4.3405,-4.3406,-4.3373,-4.3371,-4.3369,-4.3367,-4.3412,-4.3415,-4.3419,-4.3488,0,0,-4.3431,-4.3433,0,0,0,0,0,0,0,0,-4.3282,-4.3289,-4.3348,-4.3348,-4.3348,-4.338,-4.3378,-4.3433,-4.3374,-4.3363,-4.3368,-4.3365,-4.3404,-4.3408,-4.3422,-4.349,-4.3492,-4.3431,-4.3434,-4.3436,-4.3437,0,0,0,0,0,0,0,-4.3278,-4.3287,-4.3376,-4.3349,-4.3349,-4.3339,-4.3344,-4.3388,-4.3395,-4.3364,-4.3362,-4.3368,-4.3404,-4.3418,-4.3423,-4.3492,-4.3431,-4.3435,-4.3437,-4.3439,-4.3613,-4.3616,0,0,0,0,0,0,-4.3276,-4.3284,-4.3374,-4.3377,-4.3309,-4.3343,-4.3349,-4.3372,-4.3395,-4.3396,-4.337,-4.3366,-4.3413,-4.3418,-4.3424,-4.3502,-4.3435,-4.3439,-4.3441,-4.3611,-4.3614,-4.3616,0,0,0,0,0,0,-4.3273,-4.3284,-4.3372,-4.333,-4.334,-4.3348,-4.3374,-4.3374,-4.3389,-4.3399,-4.34,-4.3384,-4.3411,-4.3419,-4.3471,-4.3504,-4.3441,-4.3444,-4.3608,-4.3612,-4.3615,-4.3661,0,0,0,0,0,0,-4.327,-4.3284,-4.3311,-4.3331,-4.3343,-4.342,-4.3376,-4.3377,-4.3396,-4.3392,-4.3413,-4.3414,-4.341,-4.3466,-4.3475,-4.3508,-4.3447,-4.3606,-4.361,-4.3614,-4.3657,-4.3666,-4.3674,0,0,0,0,0,-4.3266,-4.3323,-4.3313,-4.3324,-4.3378,-4.3422,-4.3429,-4.3424,-4.3399,-4.3425,-4.3431,-4.3413,-4.3499,-4.3471,-4.3482,-4.3516,-4.3603,-4.3609,-4.3614,-4.3653,-4.3664,-4.3673,0,0,0,0,0,0,-4.3306,-4.3325,-4.3314,-4.338,-4.3399,-4.3416,-4.345,-4.3437,-4.3464,-4.3458,-4.3451,-4.3455,-4.3509,-4.3518,-4.3487,-4.3581,-4.3547,-4.3554,-4.3573,-4.3584,-4.3592,-4.3588,-4.3451,0,0,0,0,0,-4.3323,-4.3359,-4.3373,-4.3429,-4.3439,-4.3443,-4.3462,-4.3457,-4.3477,-4.3485,-4.3495,-4.3514,-4.3544,-4.3565,-4.3594,-4.3658,-4.366,-4.3687,-4.3695,-4.3702,-4.3708,-4.3739,-4.375,-4.3634,-4.3634,-4.3633,0,0,-4.3357,-4.3372,-4.3395,-4.3437,-4.3452,-4.3487,-4.345,-4.349,-4.3515,-4.3491,-4.354,-4.3548,-4.3568,-4.3626,-4.3652,-4.3635,-4.3741,-4.3709,-4.3714,-4.3716,-4.3745,-4.3756,-4.3766,-4.3637,-4.3636,-4.3636,0,0,-4.3437,-4.3454,-4.35,-4.3515,-4.3538,-4.3539,-4.3551,-4.3569,-4.3573,-4.3623,-4.3604,-4.3633,-4.3688,-4.3702,-4.3716,-4.3799,-4.3782,-4.3808,-4.3851,-4.3881,-4.3891,-4.3898,-4.3925,-4.3934,-4.3815,-4.3815,-4.3815,0,-4.3477,-4.3531,-4.3526,-4.3566,-4.3583,-4.3563,-4.3608,-4.3623,-4.3654,-4.3665,-4.3646,-4.3711,-4.3724,-4.3783,-4.3803,-4.3816,-4.3826,-4.3805,-4.389,-4.3898,-4.3905,-4.393,-4.394,-4.3818,-4.3817,-4.3817,-4.3817,0,-4.3576,-4.3613,-4.3648,-4.3677,-4.3699,-4.3742,-4.3741,-4.3763,-4.3756,-4.3758,-4.3807,-4.3821,-4.3851,-4.3865,-4.3859,-4.3922,-4.3911,-4.3891,-4.3856,-4.3919,-4.3942,-4.3952,-4.3822,-4.3821,-4.382,-4.3819,0,0,-4.3683,-4.3708,-4.3721,-4.3732,-4.3754,-4.3782,-4.3823,-4.3852,-4.387,-4.3891,-4.3923,-4.3968,-4.3949,-4.3965,-4.396,-4.3987,-4.4046,-4.3963,-4.3963,-4.3975,-4.4113,-4.4126,-4.4137,-4.4036,-4.4038,-4.404,-4.4111,0,-4.3762,-4.3833,-4.3828,-4.3894,-4.3926,-4.3906,-4.394,-4.3957,-4.396,-4.3986,-4.399,-4.402,-4.3995,-4.4004,-4.403,-4.4034,-4.4074,-4.4029,-4.4063,-4.4064,-4.4056,-4.415,-4.4164,-4.423,-4.412,-4.4121,-4.4123,0,-4.3863,-4.3887,-4.3956,-4.397,-4.3984,-4.4015,-4.404,-4.4066,-4.4083,-4.4083,-4.41,-4.4089,-4.4127,-4.4093,-4.4144,-4.4114,-4.4127,-4.4131,-4.4133,-4.4134,-4.4095,-4.415,-4.4252,-4.426,-4.4137,-4.4136,-4.4135,0,-4.393,-4.398,-4.4026,-4.4037,-4.4056,-4.4078,-4.4087,-4.4101,-4.4118,-4.414,-4.415,-4.4176,-4.419,-4.4209,-4.4204,-4.418,-4.4255,-4.4221,-4.4254,-4.4254,-4.4269,-4.4267,-4.437,-4.4282,-4.4282,-4.4282,-4.4282,0,-4.4017,-4.4059,-4.4056,-4.4085,-4.413,-4.4123,-4.4168,-4.4174,-4.4187,-4.4214,-4.4199,-4.4225,-4.4219,-4.4244,-4.4241,-4.4281,-4.4288,-4.4287,-4.4286,-4.4287,-4.4287,-4.4294,-4.4288,-4.4285,-4.4284,-4.4283,-4.4283,0,-4.4098,-4.4099,-4.4148,-4.4161,-4.4165,-4.4197,-4.4208,-4.4233,-4.4235,-4.427,-4.4277,-4.4279,-4.4308,-4.4306,-4.4338,-4.4336,-4.4385,-4.4379,-4.4379,-4.4377,-4.4408,-4.4404,-4.4518,-4.4531,-4.4437,-4.4438,-4.4438,0,-4.4152,-4.4184,-4.42,-4.4217,-4.4227,-4.4256,-4.4272,-4.4266,-4.4284,-4.4304,-4.4326,-4.4354,-4.4375,-4.4421,-4.4424,-4.4448,-4.4441,-4.4479,-4.4444,-4.4444,-4.4437,-4.4434,-4.4436,-4.4485,-4.4486,-4.4487,-4.4488,0,-4.4247,-4.4245,-4.427,-4.4294,-4.4314,-4.4333,-4.435,-4.4365,-4.4361,-4.4381,-4.441,-4.4426,-4.4458,-4.4484,-4.4506,-4.4514,-4.4499,-4.4499,-4.4507,-4.4508,-4.4505,-4.4504,-4.4394,-4.4496,-4.4495,-4.4494,-4.4494,-4.4494,-4.4314,-4.434,-4.4354,-4.4381,-4.4393,-4.4409,-4.4432,-4.4436,-4.4461,-4.4486,-4.4481,-4.4513,-4.4526,-4.4554,-4.4563,-4.4587,-4.4573,-4.4585,-4.4588,-4.4591,-4.4593,-4.4504,-4.4591,-4.4591,-4.4591,-4.459,-4.459,0,-4.4405,-4.4412,-4.4438,-4.4461,-4.4482,-4.4467,-4.4485,-4.4503,-4.4531,-4.4544,-4.4565,-4.4596,-4.4621,-4.4626,-4.4649,-4.4666,-4.466,-4.4672,-4.467,-4.4671,-4.4606,-4.4595,-4.4677,-4.4677,-4.4677,-4.4677,-4.4677,-4.4677,-4.4454,-4.4495,-4.4494,-4.4541,-4.4548,-4.4578,-4.4589,-4.4602,-4.4613,-4.4649,-4.4669,-4.4672,-4.4681,-4.4705,-4.4726,-4.4726,-4.4734,-4.4748,-4.4746,-4.4685,-4.4676,-4.4667,-4.4657,-4.4751,-4.4751,-4.4809,-4.4809,-4.481]}]]